Flight Track Log - Related Links

Times and Time Zones

All times are in EDT time to prevent confusion due to time zone crossing. See the FLG4152 flight status page for this flight to view local times or setup timezone preferences in your user account.

Time Position Orientation Groundspeed Altitude Reporting Facility
EDT Latitude Longitude Course Direction KTS MPH feet Rate Location/Type
Wed 09:27:15 PM 39.0167 -84.6833 109° East 193 222 3,700  Level Cincinnati TRACON
Wed 09:28:21 PM 39.0000 -84.6000 104° East 253 291 5,800 2,331 Climbing Cincinnati TRACON
Wed 09:29:52 PM 38.9636 -84.4583 108° East 283 326 9,800 2,211 Climbing Indianapolis Center
Wed 09:30:00 PM 38.8688 -84.0473 101° East  Level FlightAware
Wed 09:30:53 PM 38.9419 -84.3564 105° East 293 337 11,400  Level Indianapolis Center
Wed 09:31:00 PM 38.8477 -83.9083 109° East  Level FlightAware
Wed 09:31:55 PM 38.9181 -84.2394 105° East 329 379 12,600  Level Indianapolis Center
Wed 09:32:00 PM 38.8113 -83.7745 109° East  Level FlightAware
Wed 09:32:56 PM 38.8914 -84.1136 105° East 357 411 14,000  Level Indianapolis Center
Wed 09:33:57 PM 38.8644 -83.9847 105° East 369 425 15,500 1,512 Climbing Indianapolis Center
Wed 09:34:59 PM 38.8353 -83.8542 106° East 378 435 17,100 1,268 Climbing Indianapolis Center
Wed 09:36:00 PM 38.8072 -83.7211 105° East 382 440 18,100 976 Climbing Indianapolis Center
Wed 09:37:02 PM 38.7769 -83.5825 106° East 396 456 19,100 1,073 Climbing Indianapolis Center
Wed 09:38:03 PM 38.7650 -83.4150 95° East 406 467 20,300 1,073 Climbing Indianapolis Center
Wed 09:39:05 PM 38.7644 -83.2700 90° East 406 467 21,300 1,024 Climbing Indianapolis Center
Wed 09:40:06 PM 38.7633 -83.1186 90° East 407 468 22,400 1,024 Climbing Indianapolis Center
Wed 09:41:08 PM 38.7639 -82.9714 90° East 411 473 23,400 976 Climbing Indianapolis Center
Wed 09:42:09 PM 38.7411 -82.8306 102° East 416 479 24,400 878 Climbing Indianapolis Center
Wed 09:43:11 PM 38.6919 -82.6956 115° Southeast 419 482 25,200 780 Climbing Indianapolis Center
Wed 09:44:12 PM 38.6378 -82.5486 115° Southeast 425 489 26,000 689 Climbing Indianapolis Center
Wed 09:45:13 PM 38.5906 -82.4197 115° Southeast 431 496 26,600 634 Climbing Indianapolis Center
Wed 09:46:15 PM 38.5386 -82.2789 115° Southeast 439 505 27,300 683 Climbing Indianapolis Center
Wed 09:47:16 PM 38.4875 -82.1386 115° Southeast 439 505 28,000 780 Climbing Indianapolis Center
Wed 09:48:18 PM 38.4244 -81.9703 116° Southeast 441 507 28,900 488 Climbing Indianapolis Center
Wed 09:49:19 PM 38.3706 -81.8272 116° Southeast 448 516 29,000 49 Climbing Indianapolis Center
Wed 09:50:20 PM 38.3347 -81.6728 106° East 468 539 29,000  Level Indianapolis Center
Wed 09:51:22 PM 38.3089 -81.5111 101° East 472 543 29,000  Level Indianapolis Center
Wed 09:52:23 PM 38.2819 -81.3464 102° East 480 552 29,000  Level Indianapolis Center
Wed 09:53:25 PM 38.2542 -81.1781 102° East 488 562 29,000  Level Indianapolis Center
Wed 09:54:26 PM 38.2272 -81.0083 101° East 493 567 29,000  Level Indianapolis Center
Wed 09:55:27 PM 38.1944 -80.8056 102° East 491 565 29,000  Level Indianapolis Center
Wed 09:56:29 PM 38.1669 -80.6353 102° East 488 562 29,000  Level Indianapolis Center
Wed 09:57:30 PM 38.1378 -80.4647 102° East 494 568 29,000  Level Indianapolis Center
Wed 09:58:32 PM 38.1086 -80.2944 102° East 495 570 29,000 -1,366 Level Indianapolis Center
Wed 09:59:33 PM 38.0839 -80.1144 100° East 485 558 26,200 -2,534 Descending Indianapolis Center
Wed 10:00:28 PM 38.1214 -79.9997 67° East 463 533 24,100 -1,552 Descending Washington Center
Wed 10:01:29 PM 38.1750 -79.8497 66° East 427 491 23,200 -1,091 Descending Washington Center
Wed 10:02:29 PM 38.2025 -79.7192 75° East 407 468 21,900 -1,091 Descending Washington Center
Wed 10:03:30 PM 38.1483 -79.5947 119° Southeast 360 414 21,000 -446 Descending Washington Center
Wed 10:04:30 PM 38.0894 -79.4781 123° Southeast 376 433 21,000  Level Washington Center
Wed 10:05:30 PM 38.0306 -79.3617 123° Southeast 381 438 21,000  Level Washington Center
Wed 10:06:30 PM 37.9778 -79.2536 122° Southeast 396 456 21,000 -446 Level Washington Center
Wed 10:07:31 PM 37.9186 -79.1375 123° Southeast 396 456 20,100 -1,373 Descending Washington Center
Wed 10:08:28 PM 37.8764 -79.0144 113° Southeast 390 449 18,300 -1,627 Descending Washington Center
Wed 10:09:29 PM 37.8419 -78.8972 110° East 368 423 16,900 -1,328 Descending Washington Center
Wed 10:10:30 PM 37.8078 -78.7800 110° East 359 413 15,600 -1,438 Descending Washington Center
Wed 10:11:30 PM 37.7753 -78.6606 109° East 347 399 14,000 -1,475 Descending Washington Center
Wed 10:12:28 PM 37.7425 -78.5514 111° Southeast 337 388 12,700 -1,322 Descending Washington Center
Wed 10:13:28 PM 37.7119 -78.4428 110° East 331 381 11,400 -1,250 Descending Washington Center
Wed 10:14:28 PM 37.6828 -78.3419 110° East 326 375 10,200 -1,190 Descending Washington Center
Wed 10:15:29 PM 37.6558 -78.2542 111° Southeast 304 350 9,000 -590 Descending Washington Center
Wed 10:16:30 PM 37.6244 -78.1536 111° Southeast 304 350 9,000  Level Washington Center
Wed 10:17:30 PM 37.5953 -78.0581 111° Southeast 299 344 9,000  Level Washington Center
Wed 10:18:31 PM 37.5700 -77.9606 108° East 294 338 9,000 -756 Level Washington Center
Wed 10:19:29 PM 37.5783 -77.8611 84° East 281 323 7,500 -1,424 Descending Washington Center
Wed 10:20:29 PM 37.5883 -77.7644 83° East 274 315 6,200 -1,190 Descending Washington Center
Wed 10:21:30 PM 37.5942 -77.6728 85° East 269 310 5,100 -1,109 Descending Washington Center
Wed 10:22:28 PM 37.6019 -77.5814 84° East 269 310 4,000 -1,068 Descending Washington Center
Wed 10:23:28 PM 37.6097 -77.4950 83° East 263 303 3,000 -1,000 Descending Washington Center

Login

Don't have an account? Register now (free) for customized features, flight alerts, and more!